Temperature
15 15 15 15 15 15 15 14 14 14 14 14 14 14 14 14 14 14 14 14 14 14 14 14 14 14 14 13 13 13 13 13 13 12 12 12 11 11 11 11 11 11 10
15 15 15 15 14 15 15 14 14 14 14 14 14 14 14 14 14 14 14 14 14 14 14 14 14 14 14 13 13 13 13 13 12 12 12 12 11 11 11 11 11 10 10
15 15 15 15 14 14 14 14 14 14 14 14 14 14 14 14 14 14 14 14 14 14 14 14 14 14 13 13 13 13 13 12 12 12 12 12 11 11 11 11 10 10 10
15 15 15 15 14 14 14 14 14 14 14 14 14 14 14 14 14 14 14 14 14 14 14 14 13 13 13 13 13 13 12 12 12 12 12 11 11 11 11 11 10 10 10
15 15 15 15 14 14 14 14 14 14 14 14 14 14 14 14 14 14 14 14 14 14 13 13 13 13 13 13 13 13 12 12 12 12 11 11 11 11 11 10 10 10 10
15 15 15 15 15 14 14 14 14 14 14 14 14 14 14 14 14 14 14 14 13 13 13 13 13 13 13 13 12 12 12 12 12 12 11 11 11 11 11 10 10 10 10
15 15 15 15 14 14 14 14 14 14 14 14 14 14 14 14 14 13 13 13 13 13 13 13 13 13 13 12 12 12 12 12 11 11 11 11 11 11 10 10 10 10 10
15 15 15 14 14 14 14 14 14 14 14 14 14 14 13 13 13 13 13 13 13 13 13 13 13 13 12 12 12 12 12 12 11 11 11 11 11 10 10 10 10 9 9
15 15 14 14 14 14 14 14 14 14 14 14 13 13 13 13 13 13 13 13 13 13 12 12 12 12 12 12 12 12 12 11 11 11 11 11 10 10 10 10 9 9 9
14 14 14 14 14 14 14 14 14 14 13 13 13 13 13 13 13 13 13 12 12 12 12 12 12 12 12 11 11 11 11 11 11 11 11 10 10 10 10 10 9 9 9
14 14 14 14 14 14 14 14 14 13 13 13 13 13 13 13 13 12 12 12 12 12 12 12 12 12 11 11 11 11 11 11 11 10 10 10 10 10 10 9 9 9 9
14 14 14 14 13 13 13 13 13 13 13 13 12 12 12 12 12 12 12 12 12 12 11 11 11 11 11 11 11 10 10 10 10 10 10 10 10 10 9 9 9 8 8
14 14 14 13 13 13 13 13 13 13 12 12 12 12 12 12 12 12 12 11 11 11 11 11 11 11 11 10 10 10 10 10 10 9 10 9 9 9 9 9 8 8 8
13 13 13 13 13 13 13 13 13 12 12 12 12 12 12 12 12 11 11 11 11 11 11 11 11 11 10 10 10 10 10 9 9 9 9 9 9 9 9 8 8 8 8
13 13 13 13 13 13 12 12 12 12 12 12 12 12 12 12 11 11 11 11 11 11 10 10 10 10 10 10 10 10 9 9 9 9 8 8 8 8 8 8 8 7 7
13 13 13 12 12 12 12 12 12 12 12 11 11 11 11 11 11 11 11 11 10 10 10 10 10 10 10 9 9 9 9 9 8 8 8 8 8 8 8 7 7 7 7
12 12 12 12 12 12 12 12 12 12 11 11 11 11 11 11 10 10 10 10 10 10 10 10 10 10 9 9 9 9 8 8 8 8 8 8 7 7 7 7 7 7 6
12 12 12 12 12 12 11 11 11 11 11 11 11 11 10 10 10 10 10 10 10 9 9 9 9 9 9 9 9 8 8 8 8 8 7 7 7 7 7 6 6 6 6
12 12 12 12 12 11 11 11 11 11 11 11 11 10 10 10 10 9 9 9 9 9 9 9 9 9 9 8 8 8 8 8 7 7 7 7 7 6 6 6 6 6 5
11 11 11 11 11 11 11 11 11 10 10 10 10 10 10 10 9 9 9 9 9 9 9 8 8 8 8 8 8 8 7 7 7 7 7 7 6 6 6 6 5 5 5
11 11 11 11 11 10 10 10 10 10 10 10 10 10 9 9 9 9 9 9 8 8 8 8 8 8 8 7 7 7 7 7 7 6 6 6 6 6 5 5 5 5 4
10 10 10 10 10 10 10 10 10 10 10 9 9 9 9 9 9 9 8 8 8 8 8 8 7 7 7 7 7 7 7 7 6 6 6 6 5 5 5 5 4 4 4
10 10 10 10 9 9 9 9 9 9 9 9 9 8 8 8 8 8 8 8 8 7 7 7 7 7 7 7 7 6 6 6 6 6 6 5 5 5 4 4 4 4 4
9 9 9 9 9 9 9 9 9 8 8 8 8 8 8 8 8 7 7 7 7 7 7 6 6 6 6 6 6 6 6 6 6 5 5 5 5 4 4 4 4 3 3
9 9 9 9 9 9 8 8 8 8 8 8 8 8 8 7 7 7 7 7 7 6 6 6 6 6 6 6 6 6 5 5 5 5 5 4 4 4 4 3 3 3 3
9 8 8 8 8 8 8 8 8 8 7 7 7 7 7 7 7 6 6 6 6 6 6 5 5 5 5 5 5 5 5 5 5 4 4 4 4 4 3 3 3 3 2
Wind_Speed
2 2 1 1 2 2 2 2 2 1 1 1 1 1 1 2 2 2 2 2 2 1 1 2 1 1 2 2 2 2 2 3 3 1 1 1 2 2 3 4 4 4 4
3 2 2 2 1 2 2 2 2 2 2 2 2 2 2 2 2 2 2 2 2 2 1 2 1 2 2 2 2 2 2 2 3 2 0 1 1 1 2 3 3 3 3
3 3 2 2 2 2 3 2 2 2 2 2 2 2 2 2 2 2 2 2 2 2 2 2 2 3 2 2 2 2 2 2 2 3 1 0 1 1 2 2 3 3 2
3 3 3 4 4 3 3 2 2 2 2 2 2 2 2 2 2 2 2 2 2 2 2 2 3 4 4 4 3 3 3 3 3 3 1 0 0 0 1 1 1 1 1
3 4 4 4 3 3 2 2 2 2 3 2 2 2 2 2 2 3 3 3 2 2 1 1 2 4 4 4 3 3 4 3 3 2 1 0 1 1 2 2 2 0 1
3 4 4 3 3 3 3 2 2 2 2 2 2 3 3 2 3 5 4 3 3 2 2 1 1 2 3 4 5 6 6 5 4 3 2 2 3 3 2 3 2 1 1
3 3 3 3 3 3 3 3 3 3 3 3 3 3 3 3 4 5 5 4 3 3 2 2 1 2 3 2 3 4 4 5 6 5 4 5 4 5 4 3 3 3 3
3 3 3 2 3 3 3 3 4 3 3 3 3 3 3 3 4 5 5 3 2 2 2 3 3 2 2 3 3 2 1 2 4 4 5 5 5 5 6 5 5 3 1
3 4 3 3 3 3 3 4 3 3 3 3 3 3 3 3 4 5 5 3 2 2 2 2 3 3 4 5 4 3 2 2 3 4 5 4 4 5 6 4 3 2 2
5 5 4 4 4 4 5 4 3 3 4 3 3 3 3 3 4 5 5 3 3 2 1 2 4 4 5 5 4 4 3 4 2 1 1 2 2 3 6 5 5 4 2
4 4 3 4 5 5 4 3 3 3 2 2 3 2 3 4 4 5 5 3 4 3 2 2 3 5 5 6 6 4 6 4 2 2 1 1 0 0 1 3 4 4 4
3 3 3 3 3 3 3 3 3 4 3 3 2 2 1 2 3 4 5 5 5 4 4 3 3 5 5 5 5 5 5 3 1 2 1 2 2 2 2 2 4 4 4
2 3 3 3 2 3 3 3 3 3 3 3 3 3 2 2 2 4 5 5 5 4 4 5 4 5 4 3 5 5 3 2 1 2 3 3 3 3 1 1 0 1 2
3 3 3 2 2 2 2 3 3 4 4 4 4 4 3 2 2 2 2 3 4 3 3 3 3 2 2 2 2 2 2 2 3 3 3 3 1 1 1 1 1 1 1
3 3 3 3 3 2 2 2 4 4 5 6 5 5 4 4 5 5 4 3 3 3 3 1 1 1 1 1 1 1 1 2 2 2 2 2 2 1 2 1 1 1 2
3 3 3 3 2 2 2 1 3 3 4 5 5 5 5 6 5 5 6 5 5 6 4 3 3 3 4 4 3 3 3 3 3 3 3 3 3 3 2 1 1 2 3
4 4 3 3 3 3 3 3 2 2 2 4 5 6 6 5 5 6 6 5 6 7 3 4 4 5 4 4 4 4 4 4 3 3 3 3 3 3 2 2 2 2 3
3 4 4 4 4 4 4 3 3 3 3 3 4 5 6 6 6 6 5 4 3 4 3 5 5 5 4 5 5 4 4 3 3 3 3 3 3 3 3 3 3 4 4
3 3 3 3 3 3 3 3 3 3 3 3 2 3 4 4 5 6 6 4 5 5 4 5 5 4 4 5 5 4 4 4 4 3 4 4 4 4 4 4 4 5 4
3 4 3 2 2 2 2 2 3 3 3 3 3 3 2 2 2 4 4 4 5 5 5 5 5 5 5 4 4 4 4 4 4 4 4 4 4 4 5 5 4 4 4
3 3 3 3 3 3 3 3 3 3 3 4 4 4 4 4 4 5 5 5 5 6 6 5 5 5 5 4 4 5 6 5 5 5 5 4 4 4 4 4 5 5 4
3 3 3 3 3 3 3 3 3 3 4 4 3 3 5 3 4 4 4 4 4 4 4 4 5 5 5 5 5 6 6 6 6 6 5 5 4 4 4 4 4 4 4
3 3 3 3 3 3 3 3 3 4 4 3 3 3 3 4 4 4 5 5 4 4 4 4 4 4 4 5 6 7 7 8 7 7 6 5 5 5 5 5 5 5 5
4 4 4 3 3 3 3 4 4 4 4 4 4 4 4 5 5 5 5 4 4 5 5 5 5 6 6 5 6 7 7 8 8 8 8 6 6 5 5 5 6 6 5
4 4 4 4 4 4 4 4 4 4 4 4 4 4 4 4 5 5 5 4 5 5 5 5 5 5 6 7 6 7 8 9 9 8 7 6 6 6 6 6 6 6 5
4 4 4 4 4 4 4 4 4 4 4 4 4 4 4 4 4 4 4 4 4 4 4 5 6 6 6 7 7 8 8 9 9 9 7 6 6 6 6 6 6 6 6
Wind_Direction
200 216 218 230 230 208 195 218 216 208 180 176 170 152 138 131 133 141 151 149 147 151 139 143 156 140 128 132 133 133 137 139 162 235 309 356 46 49 52 69 80 76 68
203 202 217 225 215 214 221 228 213 198 189 185 162 146 148 139 142 152 164 163 162 167 180 147 167 139 129 131 132 139 147 147 156 178 301 14 29 39 54 58 52 63 63
203 202 214 220 215 221 226 227 212 198 187 167 154 166 178 170 165 166 163 165 168 180 181 175 183 152 153 149 143 143 141 128 127 152 174 67 30 41 62 54 48 31 44
207 207 217 226 226 229 225 213 198 189 186 179 172 180 181 175 171 165 155 153 154 163 177 186 185 176 178 170 163 159 141 125 121 129 139 112 95 114 111 127 44 31 23
206 215 228 232 229 226 216 206 187 183 199 185 169 177 173 171 187 174 165 155 153 156 174 188 188 180 179 171 166 166 152 144 141 141 160 153 213 182 199 198 187 201 357
208 225 229 220 217 214 210 199 184 193 197 175 181 183 185 203 197 187 169 160 158 162 180 194 188 180 173 173 171 166 162 162 173 174 188 202 225 216 198 185 173 155 278
217 229 225 214 217 221 208 190 196 202 191 189 198 185 193 206 197 187 178 168 172 187 193 192 192 168 164 160 163 164 175 184 181 180 190 213 215 210 183 182 186 188 213
230 240 234 214 221 218 201 204 211 199 191 199 206 197 197 212 194 185 178 167 179 204 204 195 188 204 173 158 150 149 203 222 205 197 205 218 212 195 186 190 190 183 217
236 243 238 220 218 208 209 216 214 200 204 205 198 194 200 221 200 187 168 156 176 217 221 201 194 205 195 168 154 173 234 269 243 220 222 223 216 195 170 140 144 152 239
241 243 236 220 211 214 217 213 203 195 210 205 202 201 200 217 206 194 176 164 180 211 225 220 204 203 198 180 177 182 216 254 252 248 251 251 234 203 185 179 184 188 202
243 245 238 228 218 217 212 203 188 181 178 188 194 203 205 215 213 203 192 182 192 196 207 230 232 215 209 201 193 199 217 220 209 198 214 262 20 170 205 204 200 194 201
222 234 240 235 226 215 198 198 183 174 174 190 195 214 229 223 209 213 208 202 190 189 211 223 222 212 213 211 206 210 213 206 185 177 198 237 240 245 241 221 217 217 221
229 244 245 236 222 200 187 184 176 178 184 194 194 213 238 236 225 219 213 212 202 201 216 212 209 206 206 209 214 205 196 194 183 203 230 245 242 237 220 210 221 213 245
221 244 237 218 222 208 196 187 182 190 196 200 203 212 225 228 230 226 221 212 207 211 217 206 192 184 194 207 202 204 201 198 199 222 242 252 251 221 215 218 231 227 254
226 238 234 220 209 205 206 212 207 211 204 201 208 205 202 223 231 210 189 194 195 198 176 155 147 172 203 228 230 225 217 207 221 232 235 245 241 234 250 240 220 197 223
224 231 225 221 208 200 207 263 267 236 229 216 211 208 217 219 216 206 201 200 191 172 154 182 205 212 220 226 225 230 224 218 223 227 228 230 235 238 248 245 208 213 232
218 225 220 215 209 203 203 209 248 290 261 232 224 219 218 218 215 212 205 194 188 169 176 206 217 220 223 222 223 226 232 230 219 216 224 231 236 240 243 242 233 234 243
225 223 215 215 214 212 212 218 216 218 242 269 253 232 223 218 216 212 191 165 191 195 210 215 224 227 226 224 222 224 229 228 221 222 225 228 230 233 239 243 241 242 245
224 225 216 208 208 210 212 214 217 221 228 243 267 255 230 213 206 200 180 193 205 218 223 226 227 227 230 229 224 220 218 221 225 225 229 231 227 225 236 243 244 247 245
230 230 215 202 197 196 198 201 211 220 228 235 242 242 213 185 206 210 209 213 215 221 223 224 227 227 226 226 224 218 218 221 224 229 233 236 233 226 232 238 242 245 246
221 221 213 200 200 203 208 217 220 219 226 235 244 234 204 201 210 215 217 221 221 223 223 224 225 225 224 221 221 218 217 222 223 225 227 230 229 234 238 237 237 239 244
205 206 203 205 208 210 218 222 222 224 230 236 254 246 217 212 217 220 220 225 223 226 220 219 226 227 224 221 219 222 224 225 225 224 226 229 231 235 236 239 241 236 237
197 200 204 208 210 218 222 222 223 229 234 236 234 233 222 222 224 224 224 223 221 224 221 215 224 232 230 223 218 218 223 224 221 216 219 225 229 233 233 236 238 240 239
199 202 206 213 219 220 223 229 230 232 233 234 234 230 225 224 226 229 228 225 222 222 218 216 219 225 229 231 227 227 227 224 218 213 210 217 226 232 232 235 237 234 237
205 207 210 214 220 226 231 234 235 236 236 239 241 241 234 230 230 232 229 229 229 230 229 225 223 222 226 230 233 235 233 224 221 218 211 212 221 226 229 232 235 233 234
212 215 219 220 223 227 231 237 240 239 238 242 244 245 241 236 235 234 229 229 234 236 233 227 224 226 228 228 231 235 231 221 217 218 214 213 220 228 230 233 233 233 233
Height
1547 1548 1548 1548 1548 1549 1548 1549 1549 1549 1549 1550 1550 1550 1550 1551 1551 1551 1552 1552 1552 1552 1552 1552 1552 1552 1552 1552 1553 1553 1553 1554 1553 1554 1554 1554 1554 1554 1553 1553 1552 1551 1551
1546 1546 1546 1546 1546 1546 1546 1547 1547 1547 1548 1548 1548 1549 1549 1549 1550 1550 1550 1550 1551 1550 1550 1550 1550 1550 1550 1551 1551 1551 1552 1552 1552 1552 1552 1552 1552 1552 1552 1552 1551 1551 1550
1544 1544 1544 1544 1544 1544 1544 1545 1545 1545 1546 1546 1546 1547 1547 1548 1548 1549 1549 1549 1549 1549 1549 1549 1549 1549 1549 1549 1549 1550 1550 1550 1550 1550 1550 1550 1550 1550 1550 1550 1550 1549 1549
1541 1541 1541 1541 1542 1542 1542 1542 1543 1543 1544 1544 1544 1545 1545 1546 1547 1547 1547 1547 1547 1547 1547 1547 1547 1547 1547 1548 1548 1548 1548 1548 1548 1548 1548 1548 1548 1548 1548 1548 1548 1547 1547
1539 1539 1539 1539 1539 1539 1540 1540 1541 1541 1542 1542 1542 1543 1544 1544 1545 1545 1545 1546 1546 1546 1546 1546 1546 1546 1546 1546 1546 1546 1546 1546 1546 1546 1546 1546 1546 1546 1546 1546 1546 1545 1545
1536 1536 1537 1537 1537 1537 1537 1538 1538 1539 1539 1540 1540 1541 1541 1542 1542 1543 1543 1543 1543 1544 1544 1544 1544 1544 1544 1544 1544 1543 1544 1544 1543 1543 1543 1543 1543 1543 1543 1543 1543 1543 1542
1534 1534 1534 1534 1534 1534 1535 1535 1535 1536 1537 1537 1538 1538 1539 1540 1540 1541 1541 1541 1541 1541 1541 1541 1541 1541 1541 1541 1541 1541 1541 1541 1541 1541 1541 1540 1540 1541 1541 1540 1540 1540 1539
1531 1531 1532 1532 1531 1532 1532 1532 1532 1533 1534 1534 1535 1536 1536 1537 1537 1538 1538 1538 1538 1538 1538 1538 1538 1538 1538 1538 1538 1538 1538 1538 1538 1537 1538 1537 1538 1538 1538 1538 1537 1537 1537
1528 1529 1529 1529 1529 1529 1528 1529 1529 1530 1531 1531 1532 1532 1533 1533 1534 1535 1535 1535 1535 1535 1535 1535 1535 1535 1535 1535 1535 1535 1534 1534 1535 1534 1534 1534 1535 1535 1535 1535 1534 1534 1533
1525 1525 1526 1526 1526 1526 1526 1526 1526 1527 1527 1528 1528 1529 1530 1530 1531 1531 1532 1532 1531 1531 1532 1532 1532 1532 1532 1532 1532 1531 1531 1531 1531 1531 1531 1531 1531 1531 1531 1531 1531 1530 1529
1522 1522 1522 1522 1522 1522 1522 1523 1523 1523 1524 1525 1525 1526 1526 1527 1527 1528 1528 1528 1528 1528 1528 1528 1529 1529 1529 1529 1528 1528 1527 1528 1527 1527 1527 1527 1527 1527 1527 1527 1527 1527 1526
1519 1519 1519 1519 1519 1519 1519 1519 1519 1520 1520 1521 1521 1522 1523 1523 1524 1524 1524 1525 1525 1525 1525 1525 1525 1526 1526 1525 1525 1524 1524 1524 1524 1523 1523 1523 1523 1523 1523 1523 1523 1522 1522
1516 1516 1516 1516 1515 1515 1515 1515 1515 1516 1516 1517 1517 1518 1519 1519 1520 1520 1521 1521 1521 1521 1521 1521 1522 1522 1522 1522 1521 1521 1521 1520 1520 1519 1519 1519 1519 1519 1519 1519 1518 1518 1517
1512 1512 1512 1512 1512 1512 1512 1511 1511 1512 1512 1513 1513 1514 1515 1515 1516 1516 1516 1516 1517 1517 1517 1517 1518 1518 1518 1518 1517 1517 1517 1517 1516 1516 1516 1516 1516 1515 1515 1514 1514 1513 1512
1508 1508 1508 1508 1508 1508 1508 1508 1508 1508 1509 1509 1509 1510 1511 1511 1512 1513 1513 1512 1513 1513 1513 1513 1513 1513 1513 1513 1513 1513 1513 1513 1512 1512 1512 1512 1511 1511 1511 1510 1509 1509 1508
1504 1504 1504 1504 1504 1504 1505 1505 1505 1505 1505 1506 1506 1507 1507 1508 1508 1509 1509 1509 1509 1509 1509 1508 1508 1509 1509 1509 1509 1509 1509 1508 1508 1508 1508 1508 1507 1507 1507 1506 1505 1504 1503
1500 1500 1501 1501 1501 1501 1501 1501 1501 1501 1502 1502 1502 1503 1503 1503 1504 1504 1505 1505 1505 1505 1504 1504 1504 1504 1504 1505 1505 1505 1505 1505 1505 1504 1504 1504 1504 1503 1503 1502 1501 1500 1499
1497 1497 1497 1497 1497 1497 1497 1497 1497 1497 1497 1497 1498 1498 1499 1499 1499 1500 1500 1500 1500 1499 1499 1499 1499 1500 1500 1500 1500 1500 1500 1500 1500 1500 1499 1499 1499 1498 1498 1497 1497 1496 1495
1492 1493 1493 1494 1494 1494 1494 1493 1493 1493 1493 1493 1493 1493 1494 1494 1494 1495 1495 1495 1494 1494 1494 1495 1495 1495 1495 1495 1495 1495 1495 1495 1495 1495 1495 1494 1494 1494 1493 1493 1492 1492 1491
1489 1489 1489 1490 1490 1490 1489 1489 1489 1489 1488 1488 1488 1488 1489 1489 1488 1489 1489 1489 1489 1489 1490 1490 1490 1490 1491 1491 1491 1490 1490 1490 1490 1490 1490 1489 1489 1489 1488 1488 1487 1487 1486
1484 1485 1485 1485 1485 1485 1485 1485 1485 1484 1484 1484 1484 1484 1484 1484 1483 1484 1484 1484 1484 1484 1484 1484 1484 1485 1485 1485 1485 1485 1485 1484 1484 1484 1484 1484 1484 1483 1483 1483 1482 1482 1481
1480 1480 1480 1480 1480 1481 1481 1481 1480 1480 1479 1479 1479 1479 1479 1479 1478 1478 1478 1478 1478 1479 1479 1479 1479 1479 1479 1479 1479 1479 1479 1479 1479 1478 1478 1478 1478 1478 1478 1477 1477 1476 1476
1475 1475 1475 1475 1476 1476 1476 1475 1475 1475 1475 1474 1474 1473 1473 1473 1473 1472 1472 1473 1473 1473 1473 1473 1473 1472 1473 1473 1473 1473 1473 1473 1473 1473 1473 1472 1472 1472 1472 1472 1471 1471 1470
1470 1470 1470 1470 1471 1471 1470 1470 1470 1470 1470 1469 1468 1468 1468 1467 1467 1467 1467 1467 1467 1467 1467 1467 1466 1466 1466 1466 1466 1466 1466 1467 1467 1467 1467 1467 1466 1466 1466 1466 1465 1465 1465
1466 1466 1466 1465 1466 1465 1465 1465 1465 1465 1464 1464 1463 1463 1462 1462 1461 1461 1461 1461 1461 1461 1460 1460 1460 1460 1459 1459 1459 1460 1460 1460 1460 1460 1460 1460 1460 1460 1459 1459 1459 1459 1459
1461 1461 1461 1460 1460 1460 1460 1460 1459 1459 1459 1459 1458 1457 1457 1456 1456 1455 1455 1455 1454 1454 1453 1453 1453 1453 1452 1452 1452 1452 1453 1453 1453 1453 1453 1453 1453 1452 1453 1452 1452 1452 1452